sat.trackr.live / text

‹ back to catalog

STARLINK-31576

NORAD 59208 · 2024-046H

PAYLOAD ACTIVE UNKNOWN

§ Identity

Operator
Country
US
Launch date
2024-03-11
Launch site
AFWTR
Launch vehicle
Mass (kg)
RCS (m²)

Purposes: comms

External: N2YO · Heavens-Above · Gunter

§ Orbital elements

Epoch: 2026-05-24T12:42:04.642560Z

Period
93.85 min
Inclination
53.1599°
Eccentricity
0.0001056
Mean motion
15.34394702 rev/d
Perigee alt
462.0 km
Apogee alt
463.4 km
Semi-major
6,840.9 km
B*
7.3782e-5
RAAN
162.1707°
Arg perigee
87.6717°
Mean anomaly
272.4406°
Rev number
12,467

§ Raw data

STARLINK-315761 59208U 24046H   26144.52922040  .00002117  00000+0  73782-4 0  99922 59208  53.1599 162.1707 0001056  87.6717 272.4406 15.34394702124673

JSON: /api/v1/satellites/59208 · /tle

For live sub-satellite position, see the globe view (requires WebGL).

§ Visibility from observer

Set your observer location to see the next 7 days of passes ≥ 10°. The values pass through the URL so the page stays shareable.

No JS? Fill the form by hand. The geolocation button needs JavaScript.